BEIDOU-3 M21

Last updated on Thu Nov 21 2024 00:02:31 GMT+0000 (Coordinated Universal Time)

1 44794U 19078B 24325.21130980 -.00000076 00000+0 00000+0 0 9995 2 44794 54.4159 319.9092 0003575 354.1630 5.8365 1.86232549 33961
UTC large
Height (km)
Speed (km/s)
/
Latitude / Longitude
Inclination (degrees)
Orbital Period (minutes)
Azimuth
Elevation
Range (km)
Doppler Factor

Next 0 passes for location: London (51.5072 / 0.1276)

Sorry there are no passes over London.